Flag for Germany Weather past 2 weeks in Buchholz in der Nordheide, Lower Saxony, Germany

Now
50 °F

Sunny.


Feels Like: 44 °F
Forecast: 34 / 51 °F
Wind: 17 mph from Northwest

Location: Hamburg-Finkenwerder

Current Time: Apr 27, 2015 at 7:04:45 PM

Latest Report: Apr 27, 2015 at 6:20 PM


Visibility: 10 mi

Pressure: 29.77 "Hg

Humidity: 62%

Dew point: 37 °F

Location of Buchholz in der NordheideLocation

Historic Weather in Buchholz in der Nordheide — Graph

°F

Buchholz in der Nordheide temperature yesterday

Past Weeks' High & Low Weather Summary

 TemperatureHumidityPressure
High70 °F (Apr 15, 3:20 PM)100% (Apr 14, 5:50 AM)30.39 "Hg (Apr 14, 5:50 AM)
Low36 °F (Apr 14, 5:50 AM)30% (Apr 20, 4:50 PM)29.68 "Hg (Apr 27, 5:50 AM)
Average52 °F69%30.11 "Hg
* Reported Apr 13 5:50 AM — Apr 27 5:50 PM, Buchholz in der Nordheide, Weather by CustomWeather, © 2015

Note: Actual official high and low records may vary slightly from our data, if they occured in-between our weather recording intervals... More about our weather records

Advertising

Buchholz in der Nordheide weather history for previous 24 hours

 ConditionsComfort  
Time TempWeatherWind HumidityBarometerVisibility
5:50 PM
Mon, Apr 27
52 °FSunny.16 mph54%29.77 "Hg10 mi
5:20 PM52 °FSunny.14 mph50%29.77 "Hg10 mi
4:50 PM52 °FSunny.16 mph47%29.77 "Hg10 mi
4:20 PM54 °FScattered clouds.16 mph58%29.77 "HgN/A
3:50 PM54 °FScattered clouds.15 mph54%29.74 "HgN/A
3:20 PM54 °FScattered clouds.9 mph51%29.74 "HgN/A
2:50 PM52 °FBroken clouds.9 mph50%29.74 "HgN/A
2:20 PM52 °FBroken clouds.12 mph50%29.74 "HgN/A
1:50 PM52 °FPartly sunny.9 mph58%29.74 "HgN/A
1:20 PM50 °FPartly sunny.8 mph58%29.74 "HgN/A
12:50 PM50 °FPartly sunny.9 mph67%29.74 "HgN/A
12:20 PM48 °FPartly sunny.10 mph71%29.74 "HgN/A
11:50 AM48 °FPartly sunny.9 mph76%29.74 "HgN/A
11:20 AM48 °FPartly sunny.9 mph71%29.74 "HgN/A
10:50 AM46 °FPartly sunny.10 mph82%29.74 "HgN/A
10:20 AM46 °FPartly sunny.8 mph82%29.71 "HgN/A
9:50 AM45 °FPartly sunny.9 mph93%29.71 "HgN/A
9:20 AM45 °FLight rain. Partly sunny.10 mph93%29.71 "HgN/A
8:50 AM45 °FLight rain. Partly sunny.9 mph100%29.71 "HgN/A
8:20 AM43 °FLight rain. Broken clouds.9 mph100%29.71 "HgN/A
7:50 AM43 °FLight rain. Partly sunny.7 mph100%29.71 "HgN/A
7:20 AM43 °FLight rain. Partly sunny.8 mph100%29.68 "HgN/A
6:50 AM43 °FLight rain. Passing clouds.10 mph100%29.68 "Hg6 mi
6:20 AM43 °FLight rain. Passing clouds.10 mph100%29.68 "Hg6 mi
5:50 AM43 °FLight rain. Partly cloudy.10 mph100%29.68 "Hg6 mi
Weather by CustomWeather, © 2015

See weather overviewHow to use our weather pages